Time,TemperatureF,DewpointF,PressureIn,WindDirection,WindDirectionDegrees,WindSpeedMPH,WindSpeedGustMPH,Humidity,HourlyPrecipIn,Conditions,Clouds,dailyrainin,SoftwareType,DateUTC
2013-02-19 00:02:00,38.0,16.0,-100.00,South,182,5.0,-999.0,40,-99.99,,,-99.99,,2013-02-19 05:02:00,
2013-02-19 00:13:00,38.0,16.0,-100.00,South,182,5.0,-999.0,40,-99.99,,,-99.99,,2013-02-19 05:13:00,
2013-02-19 00:22:00,38.0,17.0,-100.00,South,183,6.0,-999.0,40,-99.99,,,-99.99,,2013-02-19 05:22:00,
2013-02-19 00:32:00,39.0,17.0,-100.00,SSW,192,7.0,-999.0,40,-99.99,,,-99.99,,2013-02-19 05:32:00,
2013-02-19 00:43:00,39.0,17.0,-100.00,SSW,192,7.0,-999.0,40,-99.99,,,-99.99,,2013-02-19 05:43:00,
2013-02-19 00:52:00,39.0,16.0,-100.00,SSW,198,8.0,-999.0,39,-99.99,,,-99.99,,2013-02-19 05:52:00,
2013-02-19 01:03:00,39.0,16.0,-100.00,South,189,9.0,-999.0,38,-99.99,,,-99.99,,2013-02-19 06:03:00,
2013-02-19 01:12:00,39.0,16.0,-100.00,South,189,9.0,-999.0,38,-99.99,,,-99.99,,2013-02-19 06:12:00,
2013-02-19 01:22:00,39.0,16.0,-100.00,South,185,8.0,-999.0,38,-99.99,,,-99.99,,2013-02-19 06:22:00,
2013-02-19 01:32:00,39.0,17.0,-100.00,South,190,9.0,-999.0,39,-99.99,,,-99.99,,2013-02-19 06:32:00,
2013-02-19 01:42:00,39.0,17.0,-100.00,South,190,9.0,-999.0,39,-99.99,,,-99.99,,2013-02-19 06:42:00,
2013-02-19 01:52:00,39.0,18.0,-100.00,SSW,193,9.0,-999.0,42,-99.99,,,-99.99,,2013-02-19 06:52:00,
2013-02-19 02:01:00,39.0,18.0,-100.00,SSW,193,8.0,-999.0,42,-99.99,,,-99.99,,2013-02-19 07:01:00,
2013-02-19 02:11:00,39.0,18.0,-100.00,SSW,193,8.0,-999.0,42,-99.99,,,-99.99,,2013-02-19 07:11:00,
2013-02-19 02:22:00,39.0,17.0,-100.00,SSW,199,9.0,-999.0,40,-99.99,,,-99.99,,2013-02-19 07:22:00,
2013-02-19 02:32:00,39.0,17.0,-100.00,SSW,199,8.0,-999.0,40,-99.99,,,-99.99,,2013-02-19 07:32:00,
2013-02-19 02:42:00,39.0,17.0,-100.00,SSW,199,8.0,-999.0,40,-99.99,,,-99.99,,2013-02-19 07:42:00,
2013-02-19 02:52:00,39.0,17.0,-100.00,SSW,193,8.0,-999.0,40,-99.99,,,-99.99,,2013-02-19 07:52:00,
2013-02-19 03:02:00,39.0,17.0,-100.00,South,190,10.0,-999.0,41,-99.99,,,-99.99,,2013-02-19 08:02:00,
2013-02-19 03:11:00,39.0,17.0,-100.00,South,190,10.0,-999.0,41,-99.99,,,-99.99,,2013-02-19 08:11:00,
2013-02-19 03:21:00,38.0,17.0,-100.00,South,186,8.0,-999.0,42,-99.99,,,-99.99,,2013-02-19 08:21:00,
2013-02-19 03:32:00,38.0,18.0,-100.00,South,185,9.0,-999.0,43,-99.99,,,-99.99,,2013-02-19 08:32:00,
2013-02-19 03:42:00,38.0,18.0,-100.00,South,185,9.0,-999.0,43,-99.99,,,-99.99,,2013-02-19 08:42:00,
2013-02-19 03:52:00,38.0,19.0,-100.00,South,183,11.0,-999.0,46,-99.99,,,-99.99,,2013-02-19 08:52:00,
2013-02-19 04:02:00,38.0,20.0,-100.00,South,184,10.0,-999.0,49,-99.99,,,-99.99,,2013-02-19 09:02:00,
2013-02-19 04:11:00,38.0,20.0,-100.00,South,184,10.0,-999.0,49,-99.99,,,-99.99,,2013-02-19 09:11:00,
2013-02-19 04:22:00,38.0,20.0,-100.00,South,183,11.0,-999.0,48,-99.99,,,-99.99,,2013-02-19 09:22:00,
2013-02-19 04:32:00,38.0,20.0,-100.00,South,188,10.0,-999.0,48,-99.99,,,-99.99,,2013-02-19 09:32:00,
2013-02-19 04:42:00,38.0,20.0,-100.00,South,188,10.0,-999.0,48,-99.99,,,-99.99,,2013-02-19 09:42:00,
2013-02-19 04:53:00,38.0,19.0,-100.00,South,185,11.0,-999.0,47,-99.99,,,-99.99,,2013-02-19 09:53:00,
2013-02-19 05:02:00,38.0,19.0,-100.00,South,183,10.0,-999.0,47,-99.99,,,-99.99,,2013-02-19 10:02:00,
2013-02-19 05:11:00,38.0,19.0,-100.00,South,183,10.0,-999.0,47,-99.99,,,-99.99,,2013-02-19 10:11:00,
2013-02-19 05:22:00,38.0,20.0,-100.00,South,174,8.0,-999.0,47,-99.99,,,-99.99,,2013-02-19 10:22:00,
2013-02-19 05:32:00,38.0,21.0,-100.00,South,180,10.0,-999.0,50,-99.99,,,-99.99,,2013-02-19 10:32:00,
2013-02-19 05:42:00,38.0,21.0,-100.00,South,180,10.0,-999.0,50,-99.99,,,-99.99,,2013-02-19 10:42:00,
2013-02-19 05:52:00,38.0,22.0,-100.00,South,184,12.0,-999.0,52,-99.99,,,-99.99,,2013-02-19 10:52:00,
2013-02-19 06:01:00,38.0,21.0,-100.00,South,187,11.0,-999.0,51,-99.99,,,-99.99,,2013-02-19 11:01:00,
2013-02-19 06:11:00,38.0,21.0,-100.00,South,187,11.0,-999.0,51,-99.99,,,-99.99,,2013-02-19 11:11:00,
2013-02-19 06:22:00,38.0,21.0,-100.00,South,188,12.0,-999.0,49,-99.99,,,-99.99,,2013-02-19 11:22:00,
2013-02-19 06:32:00,38.0,21.0,-100.00,South,183,9.0,-999.0,49,-99.99,,,-99.99,,2013-02-19 11:32:00,
2013-02-19 06:42:00,38.0,21.0,-100.00,South,183,9.0,-999.0,49,-99.99,,,-99.99,,2013-02-19 11:42:00,
2013-02-19 06:52:00,38.0,21.0,-100.00,South,182,10.0,-999.0,50,-99.99,,,-99.99,,2013-02-19 11:52:00,
2013-02-19 07:02:00,38.0,21.0,-100.00,South,186,11.0,-999.0,51,-99.99,,,-99.99,,2013-02-19 12:02:00,
2013-02-19 07:12:00,38.0,21.0,-100.00,South,186,11.0,-999.0,51,-99.99,,,-99.99,,2013-02-19 12:12:00,
2013-02-19 07:22:00,38.0,21.0,-100.00,South,185,12.0,-999.0,51,-99.99,,,-99.99,,2013-02-19 12:22:00,
2013-02-19 07:32:00,38.0,22.0,-100.00,South,188,10.0,-999.0,51,-99.99,,,-99.99,,2013-02-19 12:32:00,
2013-02-19 07:42:00,38.0,22.0,-100.00,South,188,10.0,-999.0,51,-99.99,,,-99.99,,2013-02-19 12:42:00,
2013-02-19 07:52:00,38.0,22.0,-100.00,SSW,193,13.0,-999.0,51,-99.99,,,-99.99,,2013-02-19 12:52:00,
2013-02-19 08:02:00,39.0,22.0,-100.00,South,191,13.0,-999.0,50,-99.99,,,-99.99,,2013-02-19 13:02:00,
2013-02-19 08:11:00,39.0,22.0,-100.00,South,191,13.0,-999.0,50,-99.99,,,-99.99,,2013-02-19 13:11:00,
2013-02-19 08:22:00,39.0,22.0,-100.00,South,188,14.0,-999.0,50,-99.99,,,-99.99,,2013-02-19 13:22:00,
2013-02-19 08:32:00,39.0,22.0,-100.00,South,191,14.0,-999.0,49,-99.99,,,-99.99,,2013-02-19 13:32:00,
2013-02-19 08:42:00,39.0,22.0,-100.00,South,191,14.0,-999.0,49,-99.99,,,-99.99,,2013-02-19 13:42:00,
2013-02-19 08:52:00,39.0,22.0,-100.00,SSW,194,15.0,-999.0,49,-99.99,,,-99.99,,2013-02-19 13:52:00,
2013-02-19 09:01:00,40.0,22.0,-100.00,SSW,199,16.0,-999.0,48,-99.99,,,-99.99,,2013-02-19 14:01:00,
2013-02-19 09:12:00,40.0,22.0,-100.00,SSW,199,16.0,-999.0,48,-99.99,,,-99.99,,2013-02-19 14:12:00,
2013-02-19 09:22:00,40.0,22.0,-100.00,SSW,194,15.0,-999.0,48,-99.99,,,-99.99,,2013-02-19 14:22:00,
2013-02-19 09:33:00,40.0,22.0,-100.00,South,191,14.0,-999.0,49,-99.99,,,-99.99,,2013-02-19 14:33:00,
2013-02-19 09:42:00,40.0,22.0,-100.00,South,191,14.0,-999.0,49,-99.99,,,-99.99,,2013-02-19 14:42:00,
2013-02-19 09:52:00,40.0,23.0,-100.00,SSW,205,14.0,-999.0,50,-99.99,,,-99.99,,2013-02-19 14:52:00,
2013-02-19 10:02:00,39.0,26.0,-100.00,SW,214,13.0,-999.0,57,-99.99,,,-99.99,,2013-02-19 15:02:00,
2013-02-19 10:11:00,39.0,26.0,-100.00,SW,214,13.0,-999.0,57,-99.99,,,-99.99,,2013-02-19 15:11:00,
2013-02-19 10:21:00,39.0,27.0,-100.00,SSW,194,13.0,-999.0,61,-99.99,,,-99.99,,2013-02-19 15:21:00,
2013-02-19 10:32:00,39.0,28.0,-100.00,South,190,13.0,-999.0,65,-99.99,,,-99.99,,2013-02-19 15:32:00,
2013-02-19 10:42:00,39.0,28.0,-100.00,South,190,13.0,-999.0,65,-99.99,,,-99.99,,2013-02-19 15:42:00,
2013-02-19 10:52:00,39.0,29.0,-100.00,SSW,203,11.0,-999.0,68,-99.99,,,-99.99,,2013-02-19 15:52:00,
2013-02-19 11:02:00,39.0,30.0,-100.00,SSW,205,12.0,-999.0,70,-99.99,,,-99.99,,2013-02-19 16:02:00,
2013-02-19 11:11:00,39.0,30.0,-100.00,SSW,205,12.0,-999.0,70,-99.99,,,-99.99,,2013-02-19 16:11:00,
2013-02-19 11:22:00,39.0,31.0,-100.00,SSW,192,11.0,-999.0,73,-99.99,,,-99.99,,2013-02-19 16:22:00,
2013-02-19 11:32:00,39.0,32.0,-100.00,South,191,12.0,-999.0,75,-99.99,,,-99.99,,2013-02-19 16:32:00,
2013-02-19 11:42:00,39.0,32.0,-100.00,South,191,12.0,-999.0,75,-99.99,,,-99.99,,2013-02-19 16:42:00,
2013-02-19 11:52:00,39.0,32.0,-100.00,South,188,11.0,-999.0,78,-99.99,,,-99.99,,2013-02-19 16:52:00,
2013-02-19 12:01:00,39.0,33.0,-100.00,SSW,194,12.0,-999.0,80,-99.99,,,-99.99,,2013-02-19 17:01:00,
2013-02-19 12:11:00,39.0,33.0,-100.00,SSW,194,12.0,-999.0,80,-99.99,,,-99.99,,2013-02-19 17:11:00,
2013-02-19 12:21:00,39.0,34.0,-100.00,SSW,193,13.0,-999.0,81,-99.99,,,-99.99,,2013-02-19 17:21:00,
2013-02-19 12:32:00,39.0,34.0,-100.00,South,188,13.0,-999.0,82,-99.99,,,-99.99,,2013-02-19 17:32:00,
2013-02-19 12:42:00,39.0,34.0,-100.00,South,188,13.0,-999.0,82,-99.99,,,-99.99,,2013-02-19 17:42:00,
2013-02-19 12:52:00,39.0,35.0,-100.00,South,184,13.0,-999.0,84,-99.99,,,-99.99,,2013-02-19 17:52:00,
2013-02-19 13:01:00,40.0,36.0,-100.00,South,188,12.0,-999.0,85,-99.99,,,-99.99,,2013-02-19 18:01:00,
2013-02-19 13:11:00,40.0,36.0,-100.00,South,188,12.0,-999.0,85,-99.99,,,-99.99,,2013-02-19 18:11:00,
2013-02-19 13:21:00,40.0,36.0,-100.00,South,190,13.0,-999.0,86,-99.99,,,-99.99,,2013-02-19 18:21:00,
2013-02-19 13:32:00,41.0,37.0,-100.00,SSW,193,13.0,-999.0,87,-99.99,,,-99.99,,2013-02-19 18:32:00,
2013-02-19 13:42:00,41.0,37.0,-100.00,SSW,193,13.0,-999.0,87,-99.99,,,-99.99,,2013-02-19 18:42:00,
2013-02-19 13:52:00,41.0,38.0,-100.00,SSW,193,13.0,-999.0,87,-99.99,,,-99.99,,2013-02-19 18:52:00,
2013-02-19 14:01:00,42.0,38.0,-100.00,SSW,200,12.0,-999.0,87,-99.99,,,-99.99,,2013-02-19 19:01:00,
2013-02-19 14:11:00,42.0,38.0,-100.00,SSW,200,12.0,-999.0,87,-99.99,,,-99.99,,2013-02-19 19:11:00,
2013-02-19 14:21:00,42.0,38.0,-100.00,SSW,200,12.0,-999.0,87,-99.99,,,-99.99,,2013-02-19 19:21:00,
2013-02-19 14:32:00,42.0,39.0,-100.00,SSW,197,12.0,-999.0,87,-99.99,,,-99.99,,2013-02-19 19:32:00,
2013-02-19 14:42:00,42.0,39.0,-100.00,SSW,197,12.0,-999.0,87,-99.99,,,-99.99,,2013-02-19 19:42:00,
2013-02-19 14:52:00,43.0,39.0,-100.00,SSW,198,10.0,-999.0,87,-99.99,,,-99.99,,2013-02-19 19:52:00,
2013-02-19 15:02:00,42.0,39.0,-100.00,South,190,11.0,-999.0,87,-99.99,,,-99.99,,2013-02-19 20:02:00,
2013-02-19 15:12:00,42.0,39.0,-100.00,South,190,11.0,-999.0,87,-99.99,,,-99.99,,2013-02-19 20:12:00,
2013-02-19 15:22:00,43.0,39.0,-100.00,SSW,202,11.0,-999.0,87,-99.99,,,-99.99,,2013-02-19 20:22:00,
2013-02-19 15:32:00,43.0,39.0,-100.00,SSW,196,11.0,-999.0,87,-99.99,,,-99.99,,2013-02-19 20:32:00,
2013-02-19 15:42:00,43.0,39.0,-100.00,SSW,196,11.0,-999.0,87,-99.99,,,-99.99,,2013-02-19 20:42:00,
2013-02-19 15:52:00,43.0,40.0,-100.00,SSW,198,12.0,-999.0,88,-99.99,,,-99.99,,2013-02-19 20:52:00,
2013-02-19 16:02:00,43.0,40.0,-100.00,SSW,194,14.0,-999.0,88,-99.99,,,-99.99,,2013-02-19 21:02:00,
2013-02-19 16:11:00,43.0,40.0,-100.00,SSW,194,14.0,-999.0,88,-99.99,,,-99.99,,2013-02-19 21:11:00,
2013-02-19 16:21:00,43.0,40.0,-100.00,SSW,194,15.0,-999.0,88,-99.99,,,-99.99,,2013-02-19 21:21:00,
2013-02-19 16:32:00,43.0,40.0,-100.00,SSW,203,13.0,-999.0,88,-99.99,,,-99.99,,2013-02-19 21:32:00,
2013-02-19 16:42:00,43.0,40.0,-100.00,SSW,203,13.0,-999.0,88,-99.99,,,-99.99,,2013-02-19 21:42:00,
2013-02-19 16:52:00,43.0,40.0,-100.00,SW,214,13.0,-999.0,87,-99.99,,,-99.99,,2013-02-19 21:52:00,
2013-02-19 17:02:00,43.0,40.0,-100.00,SSW,211,14.0,-999.0,87,-99.99,,,-99.99,,2013-02-19 22:02:00,
2013-02-19 17:11:00,43.0,40.0,-100.00,SSW,211,14.0,-999.0,87,-99.99,,,-99.99,,2013-02-19 22:11:00,
2013-02-19 17:21:00,44.0,40.0,-100.00,SW,215,13.0,-999.0,86,-99.99,,,-99.99,,2013-02-19 22:21:00,
2013-02-19 17:32:00,44.0,40.0,-100.00,SSW,210,11.0,-999.0,86,-99.99,,,-99.99,,2013-02-19 22:32:00,
2013-02-19 17:42:00,44.0,40.0,-100.00,SSW,210,11.0,-999.0,86,-99.99,,,-99.99,,2013-02-19 22:42:00,
2013-02-19 17:52:00,44.0,40.0,-100.00,SW,222,10.0,-999.0,84,-99.99,,,-99.99,,2013-02-19 22:52:00,
2013-02-19 18:01:00,45.0,40.0,-100.00,West,273,10.0,-999.0,82,-99.99,,,-99.99,,2013-02-19 23:01:00,
2013-02-19 18:11:00,45.0,40.0,-100.00,West,273,10.0,-999.0,82,-99.99,,,-99.99,,2013-02-19 23:11:00,
2013-02-19 18:21:00,45.0,39.0,-100.00,WSW,256,10.0,-999.0,81,-99.99,,,-99.99,,2013-02-19 23:21:00,
2013-02-19 18:32:00,45.0,39.0,-100.00,SW,231,10.0,-999.0,80,-99.99,,,-99.99,,2013-02-19 23:32:00,
2013-02-19 18:42:00,45.0,39.0,-100.00,SW,231,10.0,-999.0,80,-99.99,,,-99.99,,2013-02-19 23:42:00,
2013-02-19 18:52:00,45.0,39.0,-100.00,SW,233,10.0,-999.0,80,-99.99,,,-99.99,,2013-02-19 23:52:00,
2013-02-19 19:01:00,44.0,39.0,-100.00,WSW,239,9.0,-999.0,80,-99.99,,,-99.99,,2013-02-20 00:01:00,
2013-02-19 19:11:00,44.0,39.0,-100.00,WSW,239,9.0,-999.0,80,-99.99,,,-99.99,,2013-02-20 00:11:00,
2013-02-19 19:21:00,44.0,39.0,-100.00,WSW,253,7.0,-999.0,80,-99.99,,,-99.99,,2013-02-20 00:21:00,
2013-02-19 19:32:00,44.0,39.0,-100.00,WSW,248,8.0,-999.0,80,-99.99,,,-99.99,,2013-02-20 00:32:00,
2013-02-19 19:42:00,44.0,39.0,-100.00,WSW,248,8.0,-999.0,80,-99.99,,,-99.99,,2013-02-20 00:42:00,
2013-02-19 19:52:00,44.0,39.0,-100.00,WSW,251,5.0,-999.0,80,-99.99,,,-99.99,,2013-02-20 00:52:00,
2013-02-19 20:02:00,44.0,39.0,-100.00,West,264,5.0,-999.0,80,-99.99,,,-99.99,,2013-02-20 01:02:00,
2013-02-19 20:11:00,44.0,39.0,-100.00,West,264,5.0,-999.0,80,-99.99,,,-99.99,,2013-02-20 01:11:00,
2013-02-19 20:21:00,44.0,38.0,-100.00,West,274,6.0,-999.0,80,-99.99,,,-99.99,,2013-02-20 01:21:00,
2013-02-19 20:32:00,44.0,38.0,-100.00,West,272,7.0,-999.0,81,-99.99,,,-99.99,,2013-02-20 01:32:00,
2013-02-19 20:42:00,44.0,38.0,-100.00,West,272,7.0,-999.0,81,-99.99,,,-99.99,,2013-02-20 01:42:00,
2013-02-19 20:52:00,43.0,38.0,-100.00,West,265,7.0,-999.0,81,-99.99,,,-99.99,,2013-02-20 01:52:00,
2013-02-19 21:02:00,43.0,37.0,-100.00,WNW,284,7.0,-999.0,79,-99.99,,,-99.99,,2013-02-20 02:02:00,
2013-02-19 21:11:00,43.0,37.0,-100.00,WNW,284,7.0,-999.0,79,-99.99,,,-99.99,,2013-02-20 02:11:00,
2013-02-19 21:22:00,43.0,35.0,-100.00,WNW,293,9.0,-999.0,72,-99.99,,,-99.99,,2013-02-20 02:22:00,
2013-02-19 21:32:00,43.0,32.0,-100.00,NW,305,11.0,-999.0,65,-99.99,,,-99.99,,2013-02-20 02:32:00,
2013-02-19 21:42:00,43.0,32.0,-100.00,NW,305,11.0,-999.0,65,-99.99,,,-99.99,,2013-02-20 02:42:00,
2013-02-19 21:52:00,42.0,29.0,-100.00,NW,308,12.0,-999.0,58,-99.99,,,-99.99,,2013-02-20 02:52:00,
2013-02-19 22:02:00,42.0,28.0,-100.00,NW,304,12.0,-999.0,56,-99.99,,,-99.99,,2013-02-20 03:02:00,
2013-02-19 22:12:00,42.0,28.0,-100.00,NW,304,12.0,-999.0,56,-99.99,,,-99.99,,2013-02-20 03:12:00,
2013-02-19 22:22:00,42.0,26.0,-100.00,WNW,301,11.0,-999.0,54,-99.99,,,-99.99,,2013-02-20 03:22:00,
2013-02-19 22:32:00,42.0,26.0,-100.00,WNW,300,11.0,-999.0,52,-99.99,,,-99.99,,2013-02-20 03:32:00,
2013-02-19 22:42:00,42.0,26.0,-100.00,WNW,300,11.0,-999.0,52,-99.99,,,-99.99,,2013-02-20 03:42:00,
2013-02-19 22:52:00,41.0,25.0,-100.00,WNW,301,13.0,-999.0,52,-99.99,,,-99.99,,2013-02-20 03:52:00,
2013-02-19 23:01:00,41.0,24.0,-100.00,NW,308,11.0,-999.0,51,-99.99,,,-99.99,,2013-02-20 04:01:00,
2013-02-19 23:11:00,41.0,24.0,-100.00,NW,308,11.0,-999.0,51,-99.99,,,-99.99,,2013-02-20 04:11:00,
2013-02-19 23:21:00,40.0,23.0,-100.00,NW,310,13.0,-999.0,49,-99.99,,,-99.99,,2013-02-20 04:21:00,
2013-02-19 23:31:00,40.0,21.0,-100.00,NW,310,12.0,-999.0,47,-99.99,,,-99.99,,2013-02-20 04:31:00,
2013-02-19 23:42:00,40.0,21.0,-100.00,NW,310,12.0,-999.0,47,-99.99,,,-99.99,,2013-02-20 04:42:00,
2013-02-19 23:52:00,40.0,20.0,-100.00,NW,309,13.0,-999.0,45,-99.99,,,-99.99,,2013-02-20 04:52:00,